Weather Roundup
Issued by NWS

Home | Current Version | Previous Version | Graphics & Text | Print | Product List | Glossary Off
Versions: 1 2 3 4 5 6 7 8 9 10 11 12 13 14 15 16 17 18 19 20 21 22 23 24 25 26 27 28 29 30 31 32 33 34 35 36 37 38 39 40 41 42 43 44 45 46 47 48 49 50

000
NZUS93 KARX 301810
HRRWXR

CURRENT HOURLY OBSERVATIONS ACROSS
MUCH OF THE UPPER MISSISSIPPI VALLEY
NATIONAL WEATHER SERVICE LA CROSSE WI
100 PM CDT TUE SEP 30 2014


...SOUTHEAST MINNESOTA...


CITY           SKY/WX    TMP DP  RH WIND       PRES   REMARKS
ROCHESTER      PTSUNNY   52  45  77 SE10G22   30.02F
ROCHESTER/MAYO FAIR      51  41  70 SE12      30.02F
WINONA         CLOUDY    50  43  76 SE10      30.06F
AUSTIN         CLOUDY    52  46  82 SE10      29.99F
ALBERT LEA     CLOUDY    54  48  82 SE14      29.98F
DODGE CENTER   CLOUDY    54  45  71 SE13      30.01S
PRESTON        PTSUNNY   50  44  78 E8        30.03F
OWATONNA       CLOUDY    54  45  71 SE8       30.00F
FARIBAULT      CLOUDY    52  45  76 E7        30.00F
$$

...ELSEWHERE IN MINNESOTA...


CITY           SKY/WX    TMP DP  RH WIND       PRES   REMARKS
MINNEAPOLIS    PTSUNNY   53  41  63 E13       30.01F
INTNL FALLS    PTSUNNY   50  42  74 SE10      30.03F
DULUTH         CLOUDY    46  39  76 E17       30.07F
RED WING       MOSUNNY   54  43  66 SE10      30.02F
REDWOOD FALLS  CLOUDY    53  45  74 SE14G26   29.91F
MANKATO        CLOUDY    52  43  71 SE14      29.97F
WORTHINGTON    CLOUDY    61  52  72 SE18      29.89S
FAIRMONT       CLOUDY    55  48  76 SE13G20   29.93F
$$

...SOUTHWEST WISCONSIN...


CITY           SKY/WX    TMP DP  RH WIND       PRES   REMARKS
LA CROSSE      CLOUDY    53  42  66 E6        30.07F
PRAIRIE DU CHI PTSUNNY   53  44  71 E5        30.04F
BOSCOBEL       CLOUDY    53  43  68 VRB7      30.07F
LONE ROCK      CLOUDY    54  41  61 E10       30.08S
PLATTEVILLE    MOSUNNY   53  44  72 NE7       30.06F
FORT MC COY    CLOUDY    49  40  72 SE7       30.08F
CAMP DOUGLAS   CLOUDY    48  46  93 E10       30.08F
VIROQUA        MOCLDY    53  42  67 E8        30.05F
WIS DELLS      CLOUDY    46  40  79 E9        30.08F
$$

...ELSEWHERE IN WISCONSIN...


CITY           SKY/WX    TMP DP  RH WIND       PRES   REMARKS
MILWAUKEE      PTSUNNY   54  45  71 N13       30.07F
MADISON        CLOUDY    48  41  76 NE8       30.08F
GREEN BAY      CLOUDY    49  42  77 NE7       30.10S
EAU CLAIRE     SUNNY     50  39  66 E7        30.05F
BLACK RVR FLS  CLOUDY    51  39  63 E6        30.08S
MEDFORD        SUNNY     51  41  69 E3        30.06F
WAUSAU         CLOUDY    49  40  71 VRB3      30.07F
WIS RAPIDS     CLOUDY    50  40  68 SE9       30.10F
MARSHFIELD     CLOUDY    48  40  73 E5        30.08F
RICE LAKE      MOSUNNY   49  40  71 E8        30.07F
$$

...NORTHEAST IOWA...


CITY           SKY/WX    TMP DP  RH WIND       PRES   REMARKS
DECORAH        CLOUDY    54  46  76 VRB6      30.03F
MASON CITY     CLOUDY    56  50  80 SE14G22   29.99F
CHARLES CITY   CLOUDY    55  48  76 SE10      30.01F
OELWEIN        CLOUDY    55  46  71 E9        30.02F
$$

...ELSEWHERE IN IOWA...


CITY           SKY/WX    TMP DP  RH WIND       PRES   REMARKS
DES MOINES     CLOUDY    63  56  78 E12       29.93F
IOWA CITY      CLOUDY    57  52  83 E10       30.02F
FORT DODGE     CLOUDY    61  55  82 SE10G16   29.94F
$$

...NORTHERN ILLINOIS...


CITY           SKY/WX    TMP DP  RH WIND       PRES   REMARKS
CHICAGO-OHARE  PTSUNNY   55  46  71 N10       30.04F
CHICAGO-MIDWAY PTSUNNY   58  49  72 N10       30.04F
MOLINE         NOT AVBL
ROCKFORD       CLOUDY    52  43  71 VRB7      30.08F
PEORIA         MOSUNNY   66  52  60 E7        30.01S
$$

NOTE: "FAIR" INDICATES FEW OR NO CLOUDS BELOW 12,000 FEET WITH NO
SIGNIFICANT WEATHER AND/OR OBSTRUCTIONS TO VISIBILITY. WIND
SPEEDS ARE IN MILES-PER-HOUR.



USA.gov is the U.S. government's official web portal to all federal, state and local government web resources and services.